Weather History for Eugene, OR

Change the Weather History Date:

Friday, November 16, 2012

  Actual Average Record
Temperature  
Mean Temperature 48 °F 45 °F  
Max Temperature 59 °F 52 °F 71 °F (1976)
Min Temperature 36 °F 38 °F 21 °F (1955)
Degree Days  
Heating Degree Days 17 20  
Month to date heating degree days 230 296  
Since 1 July heating degree days 656 866  
Cooling Degree Days 0 0  
Month to date cooling degree days 0 0  
Year to date cooling degree days 230 239  
Moisture  
Dew Point 40 °F    
Average Humidity 84    
Maximum Humidity 100    
Minimum Humidity 67    
Precipitation  
Precipitation T in 0.27 in 1.65 in (1930)
Month to date precipitation 1.24 3.70  
Year to date precipitation 36.37 34.25  
Snow  
Snow 0.00 in - - ()
Month to date snowfall 0.0  
Since 1 July snowfall 0.0  
Since 1 September snowfall 0.0  
Snow Depth 0.00 in    
Sea Level Pressure  
Sea Level Pressure 29.90 in    
Wind  
Wind Speed 5 mph (SSW)    
Max Wind Speed 9 mph    
Max Gust Speed 12 mph    
Visibility 5 miles    
Events Fog , Rain , Snow    
T = Trace of Precipitation, MM = Missing Value Source: NWS Daily Summary

Daily Weather History Graph

Daily Weather History Graph

Search for Another Location

Airport:

Trip Planner

Search our weather history database for the weather conditions in past years. The results will help you decide how hot, cold, wet, or windy it might be!

Date:

Astronomy

Nov. 16, 2012 Rise Set
Actual Time 7:10 AM PST 4:44 PM PST
Civil Twilight 6:38 AM PST 5:16 PM PST
Nautical Twilight 6:03 AM PST 5:51 PM PST
Astronomical Twilight 5:29 AM PST 6:25 PM PST
Moon 10:11 AM PST (11/16) 7:49 PM PST (11/16)
Length of Visible Light 10h 37m
Length of Day
9h 34m
Waxing Crescent, 12% of the Moon is Illuminated
Nov 16
Waxing Crescent
Nov 20
First Quarter
Nov 28
Full
Dec 6
Last Quarter
Dec 13
New

Hourly Weather History & Observations

Time (PST) Temp. Windchill Dew Point Humidity Pressure Visibility Wind Dir Wind Speed Gust Speed Precip Events Conditions
12:54 AM 41.0 °F - 39.9 °F 96% 29.95 in 3.0 mi Calm Calm - N/A   Clear
1:15 AM 39.2 °F - 39.2 °F 100% 29.94 in 1.8 mi Calm Calm - N/A   Partly Cloudy
1:17 AM 39.2 °F - 39.2 °F 100% 29.94 in 1.0 mi Calm Calm - N/A   Mist
1:24 AM 39.2 °F - 39.2 °F 100% 29.94 in 0.5 mi Calm Calm - N/A Fog Fog
1:54 AM 37.9 °F 35.5 °F 37.0 °F 97% 29.94 in 0.5 mi South 3.5 mph - N/A Fog Fog
2:34 AM 37.4 °F - 35.6 °F 93% 29.94 in 0.2 mi Calm Calm - N/A Fog Fog
2:42 AM 37.4 °F 34.9 °F 37.4 °F 100% 29.94 in 0.5 mi South 3.5 mph - N/A Fog Fog
2:54 AM 37.0 °F 33.3 °F 36.0 °F 96% 29.94 in 1.0 mi South 4.6 mph - N/A   Mist
2:58 AM 37.4 °F 34.9 °F 37.4 °F 100% 29.93 in 2.0 mi South 3.5 mph - N/A   Overcast
3:10 AM 35.6 °F - 35.6 °F 100% 29.93 in 1.2 mi Calm Calm - N/A   Overcast
3:17 AM 35.6 °F 32.8 °F 35.6 °F 100% 29.93 in 1.2 mi South 3.5 mph - N/A   Overcast
3:24 AM 35.6 °F 31.7 °F 35.6 °F 100% 29.93 in 1.5 mi South 4.6 mph - N/A   Overcast
3:28 AM 37.4 °F 34.9 °F 37.4 °F 100% 29.93 in 1.0 mi South 3.5 mph - N/A   Mist
3:37 AM 37.4 °F 32.8 °F 37.4 °F 100% 29.93 in 0.5 mi SSW 5.8 mph - N/A Fog Fog
3:44 AM 37.4 °F 33.8 °F 37.4 °F 100% 29.93 in 0.2 mi SW 4.6 mph - N/A Fog Fog
3:54 AM 37.9 °F 34.4 °F 37.9 °F 100% 29.94 in 0.5 mi WSW 4.6 mph - N/A Fog Fog
4:26 AM 39.2 °F 35.9 °F 39.2 °F 100% 29.93 in 0.5 mi SSW 4.6 mph - N/A Fog Fog
4:42 AM 39.2 °F 37.0 °F 39.2 °F 100% 29.94 in 0.5 mi SSW 3.5 mph - N/A Fog Fog
4:51 AM 37.4 °F 33.8 °F 37.4 °F 100% 29.94 in 0.5 mi South 4.6 mph - 0.00 in Fog , Snow Light Snow
4:54 AM 37.9 °F 34.4 °F 37.9 °F 100% 29.94 in 0.8 mi South 4.6 mph - 0.00 in Snow Light Snow
5:02 AM 37.4 °F 34.9 °F 37.4 °F 100% 29.94 in 1.5 mi SSE 3.5 mph - 0.00 in Snow Light Snow
5:06 AM 37.4 °F 33.8 °F 37.4 °F 100% 29.94 in 2.0 mi SSE 4.6 mph - 0.00 in   Scattered Clouds
5:14 AM 37.4 °F 34.9 °F 37.4 °F 100% 29.94 in 4.0 mi South 3.5 mph - 0.00 in   Partly Cloudy
5:54 AM 37.0 °F 34.5 °F 37.0 °F 100% 29.94 in 2.0 mi West 3.5 mph - 0.00 in   Scattered Clouds
6:13 AM 37.4 °F 32.8 °F 37.4 °F 100% 29.93 in 1.5 mi WSW 5.8 mph - N/A   Mostly Cloudy
6:18 AM 37.4 °F 33.8 °F 37.4 °F 100% 29.93 in 0.8 mi WSW 4.6 mph - N/A   Mist
6:20 AM 37.4 °F 34.9 °F 37.4 °F 100% 29.93 in 0.8 mi SW 3.5 mph - N/A   Mostly Cloudy
6:54 AM 37.9 °F 33.5 °F 37.9 °F 100% 29.94 in 2.5 mi SSE 5.8 mph - N/A Fog Mostly Cloudy
7:14 AM 39.2 °F 35.9 °F 37.4 °F 93% 29.93 in 6.0 mi SSW 4.6 mph - N/A   Mostly Cloudy
7:54 AM 39.9 °F 37.8 °F 39.9 °F 100% 29.94 in 7.0 mi SW 3.5 mph - N/A   Mostly Cloudy
8:54 AM 43.0 °F 41.3 °F 43.0 °F 100% 29.94 in 10.0 mi SSW 3.5 mph - N/A   Mostly Cloudy
9:54 AM 46.0 °F 44.8 °F 44.1 °F 93% 29.94 in 10.0 mi SSW 3.5 mph - N/A   Mostly Cloudy
10:54 AM 53.1 °F - 46.0 °F 77% 29.92 in 10.0 mi SSW 4.6 mph - N/A   Mostly Cloudy
11:54 AM 55.9 °F - 46.0 °F 69% 29.90 in 10.0 mi SSE 6.9 mph - N/A   Mostly Cloudy
12:54 PM 57.0 °F - 46.9 °F 69% 29.87 in 10.0 mi SSE 5.8 mph - N/A   Mostly Cloudy
1:54 PM 57.0 °F - 46.9 °F 69% 29.86 in 10.0 mi SSE 4.6 mph - N/A   Mostly Cloudy
2:54 PM 57.9 °F - 48.0 °F 70% 29.84 in 10.0 mi SE 6.9 mph - N/A   Mostly Cloudy
3:54 PM 57.9 °F - 46.0 °F 65% 29.84 in 10.0 mi South 8.1 mph - N/A   Mostly Cloudy
4:54 PM 52.0 °F - 44.1 °F 74% 29.83 in 10.0 mi SSW 5.8 mph - N/A   Mostly Cloudy
5:54 PM 50.0 °F - 44.1 °F 80% 29.82 in 10.0 mi SSW 4.6 mph - N/A   Scattered Clouds
6:54 PM 46.9 °F - 44.1 °F 90% 29.81 in 10.0 mi SW 4.6 mph - N/A   Mostly Cloudy
7:54 PM 45.0 °F 43.5 °F 42.1 °F 90% 29.80 in 10.0 mi SSW 3.5 mph - N/A   Scattered Clouds
8:54 PM 45.0 °F - 43.0 °F 93% 29.79 in 10.0 mi Calm Calm - N/A   Clear
9:54 PM 46.0 °F 43.9 °F 45.0 °F 96% 29.79 in 10.0 mi SSW 4.6 mph - N/A   Overcast
10:54 PM 48.0 °F - 45.0 °F 89% 29.77 in 10.0 mi SW 4.6 mph - N/A   Overcast
11:54 PM 48.9 °F - 46.0 °F 90% 29.75 in 10.0 mi SSW 6.9 mph - 0.00 in Rain Light Rain